Regional Weather Roundup
Issued by NWS

Home | Current Version | Previous Version | Text Only | Print | Product List | Glossary On
Versions: 1 2 3 4 5 6 7 8 9 10 11 12 13 14 15 16 17 18 19 20 21 22 23 24 25 26 27 28 29 30 31 32 33 34 35 36 37 38 39 40 41 42 43 44 45 46 47 48 49 50
584
ASCA42 TJSJ 290410
RWRPR
PUERTO RICO/U.S. VIRGIN ISLANDS HOURLY WEATHER ROUNDUP
NATIONAL WEATHER SERVICE SAN JUAN PR
1200 AM AST SUN MAY 29 2016

PRZ001-004-290500-
PUERTO RICO

CITY           SKY/WX    TMP DP  RH WIND       PRES   REMARKS
SAN JUAN LMM   PTCLDY    81  73  78 CALM      30.04S
PONCE          PTCLDY    79  73  83 E6        30.03S
CEIBA          CLOUDY    77  75  94 VRB3      30.07S FOG
$$

PRZ006-007-290500-
U.S. VIRGIN ISLANDS

CITY           SKY/WX    TMP DP  RH WIND       PRES   REMARKS
CHARLOTTE AMA  CLEAR     82  75  78 E10       30.03F
CHRISTIANSTED  PTCLDY    79  75  89 NE5       30.04F
$$

HOURLY WEATHER ROUNDUP FOR THE NEWS MEDIA

CITY           SKY/WX    TMP DP  RH WIND       PRES   REMARKS
ORLANDO        PTCLDY    76  69  79 CALM      30.07R
NEW YORK       PTCLDY    68  53  58 S8        30.14S
NEWARK         CLEAR     78  62  57 S13       30.12R
CHICAGO        CLOUDY    65  63  93 S7        29.95S
HARTFORD       CLEAR     66  59  78 S5        30.12R
BOSTON         MOCLDY    77  66  68 SW9       30.09R
DALLAS         CLOUDY    81  73  76 SE12      30.00R
PHILADELPHIA   PTCLDY    73  59  61 S3        30.15S
LOS ANGELES    CLOUDY    59  53  80 SW9       29.95R
WASHINGTON DC  FAIR      72  63  73 S5        30.15R



USA.gov is the U.S. government's official web portal to all federal, state and local government web resources and services.